Hourly Data Report for July 27, 2021

WINDSOR A
ONTARIO
Current Station Operator: NAVCAN

42°16'34.000" N
82°57'19.000" W
189.60 m
6139530
71538
YQG

Download Data

Hourly Data (July 2021)
Hourly Data Report for July 27, 2021
TIME
LST
Temp Definition
°C
Dew Point Definition
°C
Rel Hum Definition
%
Precip. Amount Definition
mm

Wind Dir Definition
10's deg

Wind Spd Definition
km/h
Visibility Definition
km
Stn Press Definition
kPa
Hmdx Definition


Wind Chill Definition


Weather Definition


00:00 20.6 16.9 79 0.0 25 11 16.1 99.37 26   LegendNANA
01:00 20.9 17.0 78 0.0 27 5 16.1 99.35 26   LegendNANA
02:00 20.3 17.2 82 0.0 26 11 16.1 99.36 26   LegendNANA
03:00 19.5 16.8 84 0.0 23 8 16.1 99.33     LegendNANA
04:00 18.7 16.5 87 0.0 25 11 16.1 99.31     LegendNANA
05:00 19.0 16.2 84 0.0 27 11 16.1 99.32     LegendNANA
06:00 19.4 16.7 84 0.0 24 13 16.1 99.38     LegendNANA
07:00 22.4 17.2 72 0.0 26 15 16.1 99.38 28   LegendNANA
08:00 24.8 17.7 64 0.0 26 17 16.1 99.40 31   LegendNANA
09:00 25.6 19.0 66 0.0 24 13 16.1 99.39 32   LegendNANA
10:00 26.8 18.7 61 0.0 30 13 16.1 99.37 33   LegendNANA
11:00 27.5 17.1 53 0.0 29 17 16.1 99.37 33   LegendNANA
12:00 29.3 17.6 49 0.0 26 22 16.1 99.38 35   LegendNANA
13:00 28.7 18.6 54 0.0 30 22 16.1 99.41 35   LegendNANA
14:00 28.4 18.1 53 0.0 32 17 16.1 99.41 34   LegendNANA
15:00 28.0 16.6 49 0.0 33 13 16.1 99.39 33   LegendNANA
16:00 28.6 14.7 42 0.0 32 21 16.1 99.37 32   LegendNANA
17:00 28.6 14.9 43 0.0 30 17 16.1 99.37 33   LegendNANA
18:00 27.9 16.2 48 0.0 33 13 16.1 99.36 33   LegendNANA
19:00 26.8 16.4 52 0.0 34 8 16.1 99.32 32   LegendNANA
20:00 26.0 16.3 54 0.0 33 5 16.1 99.34 31   LegendNANA
21:00 23.8 17.5 67 0.0 26 4 16.1 99.36 29   LegendNANA
22:00 22.7 17.7 73 0.0 21 4 16.1 99.39 28   LegendNANA
23:00 20.9 18.7 87 0.0 17 5 16.1 99.41 27   LegendNANA

Notes on Data Quality.

Legend

  • E = Estimated
  • M = Missing
  • NA = Not Available*
  • [empty] = Indicates an unobserved value
Date modified: